This demonstration page uses our WeatherBlox Daily Observations layout. Learn more.

Left ArrowRight Arrow

Hourly Observations for January 26, 2022

Temp ( °F °C ) Dew Point ( °F °C ) Humidity (%) Winds ( mph kmh ) Pressure ( in mb ) Visibility ( mi km ) Precip ( " mm )
12:39 am 00:39 Cloudy with Light Snow 19 -7 14 -10 79 79 SSW 9 15 30.55 1034 9 14 0.00 0.00
12:56 am 00:56 Cloudy with Light Snow 19 -7.2 14 -10 81 81 SSW 12 19 30.48 1032 9 14 0.00 0.00
1:56 am 01:56 Cloudy 19 -7.2 14 -10 81 81 SSW 9 15 30.46 1032 10 16 0.00 0.00
2:56 am 02:56 Cloudy 19 -7.2 14 -10 81 81 SSW 13 20 30.44 1031 10 16 0.00 0.00
3:56 am 03:56 Cloudy 17 -8.3 14 -10 88 88 SSW 12 19 30.42 1030 10 16 0.00 0.00
4:56 am 04:56 Cloudy 16 -8.9 13 -10.6 88 88 SSW 9 15 30.39 1029 10 16 0.00 0.00
5:56 am 05:56 Cloudy 18 -7.8 15 -9.4 88 88 SSW 13 20 30.36 1028 10 16 0.00 0.00
6:53 am 06:53 Partly Cloudy 16 -9 12 -11 86 86 SSW 13 20 30.43 1031 10 16 0.00 0.00
6:56 am 06:56 Mostly Clear 15 -9.4 13 -10.6 91 91 SSW 12 19 30.36 1028 10 16 0.00 0.00
7:56 am 07:56 Sunny 14 -10 11 -11.7 88 88 SSW 14 22 30.35 1028 10 16 0.00 0.00
8:40 am 08:40 Mostly Cloudy 16 -9 12 -11 86 86 SSW 16 26 30.41 1030 10 16 0.00 0.00
8:56 am 08:56 Cloudy 16 -8.9 13 -10.6 88 88 SSW 14 22 30.33 1027 10 16 0.00 0.00
9:12 am 09:12 Partly Cloudy 18 -8 12 -11 79 79 SSW 18 30 30.39 1029 10 16 0.00 0.00
9:56 am 09:56 Sunny 21 -6.1 15 -9.4 78 78 SW 17 28 30.31 1026 10 16 0.00 0.00
10:56 am 10:56 Sunny 25 -3.9 17 -8.3 72 72 SW 20 31 30.27 1025 10 16 0.00 0.00
11:56 am 11:56 Sunny 29 -1.7 20 -6.7 69 69 SW 21 33 30.23 1024 10 16 0.00 0.00
12:56 pm 12:56 Sunny 32 0 21 -6.1 64 64 SSW 28 44 30.16 1021 10 16 0.00 0.00
1:56 pm 13:56 Sunny 34 1.1 22 -5.6 61 61 SSW 29 46 30.11 1020 10 16 0.00 0.00
2:56 pm 14:56 Sunny 35 1.7 22 -5.6 59 59 SSW 28 44 30.09 1019 10 16 0.00 0.00
3:56 pm 15:56 Sunny 35 1.7 23 -5 61 61 SW 23 37 30.08 1019 10 16 0.00 0.00
4:56 pm 16:56 Sunny 33 0.6 22 -5.6 64 64 SSW 24 39 30.07 1018 10 16 0.00 0.00
5:56 pm 17:56 Clear 30 -1.1 23 -5 75 75 SW 14 22 30.10 1019 10 16 0.00 0.00
6:56 pm 18:56 Clear 29 -1.7 22 -5.6 75 75 SW 16 26 30.10 1019 10 16 0.00 0.00
7:56 pm 19:56 Clear 28 -2.2 21 -6.1 75 75 SW 15 24 30.11 1020 10 16 0.00 0.00
8:56 pm 20:56 Clear 27 -2.8 21 -6.1 78 78 SW 14 22 30.12 1020 10 16 0.00 0.00
9:56 pm 21:56 Clear 26 -3.3 21 -6.1 81 81 WSW 9 15 30.13 1020 10 16 0.00 0.00
10:56 pm 22:56 Clear 25 -3.9 21 -6.1 85 85 WSW 8 13 30.14 1021 10 16 0.00 0.00
11:56 pm 23:56 Clear 26 -3.3 21 -6.1 81 81 WSW 9 15 30.15 1021 10 16 0.00 0.00

Powered by AerisWeather